Regional Weather Roundup
Issued by NWS Jackson, KY

Home | Current Version | Previous Version | Graphics & Text | Print | Product List | Glossary On
Versions: 1 2 3 4 5 6 7 8 9 10 11 12 13 14 15 16 17 18 19 20 21 22 23 24 25 26 27 28 29 30 31 32 33 34 35 36 37 38 39 40 41 42 43 44 45 46 47 48 49 50
000
ASUS43 KJKL 200210
RWRJKL

EAST KENTUCKY HOURLY WEATHER ROUNDUP
NATIONAL WEATHER SERVICE JACKSON KY
1000 PM EDT THU OCT 19 2017

NOTE: "FAIR" INDICATES FEW OR NO CLOUDS BELOW 12,000 FEET WITH
NO SIGNIFICANT WEATHER AND/OR OBSTRUCTIONS TO VISIBILITY.

* THESE REPORTS ARE NOT UNDER NWS QUALITY CONTROL AND MAY NOT
  REPORT WEATHER SUCH AS PRECIPITATION AND FOG.

KYZ079-080-083-085-087-088-110-112-115-119-120-200300
...EASTERN KENTUCKY...

CITY           SKY/WX    TMP DP  RH WIND       PRES   REMARKS
JACKSON        CLEAR     61  45  55 CALM      30.26F
LONDON         CLEAR     53  49  86 CALM      30.27R
SOMERSET*      CLEAR     50  50 100 CALM      30.27S
MONTICELLO*    CLEAR     46  45  96 W6        30.28S
WILLIAMSBURG*  CLEAR     54  50  87 CALM      30.26F
MIDDLESBORO*   CLEAR     50  49  97 CALM      30.29S
HARLAN APT*    CLEAR     50  46  87 CALM      30.29R
PIKE CO APT*     N/A     60  47  62 CALM      30.26S
BIG SANDY APT* CLEAR     57  48  73 CALM      30.26S
MOREHEAD APT*  CLEAR     55  48  76 S5        30.26S
$$

KYZ035-036-041-042-044-050-067-078-099-200300
...CENTRAL KENTUCKY...

CITY           SKY/WX    TMP DP  RH WIND       PRES   REMARKS
MT STERLING*   CLEAR     48  46  93 SW5       30.26F
FLEMING/MASON* CLOUDY    57  48  72 SW6       30.26R
DANVILLE*      CLEAR     52  50  93 CALM      30.27S
LEXINGTON      CLEAR     55  49  80 S5        30.25S
FRANKFORT      CLEAR     54  48  80 CALM      30.23F
LOUISVILLE     CLEAR     62  53  72 SE5       30.22S
LEBANON*         N/A     59  48  67 CALM      30.25S
GLASGOW*       CLEAR     52  52 100 CALM      30.24F
BOWLING GREEN  CLEAR     57  52  83 CALM      30.24S
$$

KYZ091>093-OHZ055-061-077-WVZ005-015-034-035-042-200300
...SOUTHERN OHIO/WEST VIRGINIA...

CITY           SKY/WX    TMP DP  RH WIND       PRES   REMARKS
COVINGTON      CLOUDY    58  52  80 S5        30.23R
COLUMBUS       CLOUDY    63  50  62 SW5       30.19S
DAYTON         PTCLDY    61  51  70 SW6       30.22S
WILMINGTON     CLEAR     57  50  77 SW5       30.22S
HUNTINGTON     CLEAR     57  48  72 CALM      30.24R
CHARLESTON     CLEAR     55  47  74 CALM      30.24S
PINEVILLE*     CLEAR     48  43  84 MISG      30.32S
BECKLEY        CLEAR     51  41  68 CALM      30.28S
BLUEFIELD      CLEAR     54  37  52 W8        30.30S
LOGAN CO APT*    N/A     57  46  67 CALM      30.26S
$$

VAZ002-007-008-TNZ017-027-036-066-071-200300
...SOUTHWEST VIRGINIA/EAST TENNESSEE...

CITY           SKY/WX    TMP DP  RH WIND       PRES   REMARKS
WISE*          CLEAR     55  43  62 CALM      30.32R
JONESVILLE*      N/A     48  46  93 CALM      30.31R
ABINGDON*      CLEAR     52  43  70 CALM      30.30S
BRISTOL        CLEAR     50  46  86 CALM      30.29R
MORRISTOWN*    CLEAR     54  48  82 CALM      30.27S
SEVIERVILLE*   CLEAR     52  46  82 CALM      30.28R
KNOXVILLE      CLEAR     55  50  83 NE3       30.26S
LAFOLLETTE*    CLEAR     50  50 100 CALM      30.31F
OAK RIDGE      CLEAR     51  50  96 CALM      30.29R
CROSSVILLE     CLEAR     50  46  86 CALM      30.29S
NASHVILLE      CLEAR     58  49  72 S5        30.24S
$$

...KEY TO REMARKS...
VSB - VISIBILITY IN MILES
WCI - WIND CHILL INDEX
HX  - HEAT INDEX

$$



USA.gov is the U.S. government's official web portal to all federal, state and local government web resources and services.